User: anonymous   Login
Location: Bittkow
(50.3000°N, 19.0000°E)
Time: 11:42:08
(UTC+00:00)
Language:

Cosmos 972 Rocket - Orbit

View from above orbital plane
View from above orbital plane
View from above satellite
View from above satellite

Ground track
Ground track

The orbit data is extracted from the following two-line orbital elements,

1 10541U 77123B   20330.90928160 -.00000013 +00000-0 +12483-5 0  9992
2 10541 075.8355 289.5961 0300255 267.1704 089.5038 13.88968067174717
Epoch (UTC): 25 November 2020 21:49:21
Eccentricity: 0.0300255
inclination: 75.8355°
perigee height: 713 km
apogee height: 1152 km
right ascension of ascending node: 289.5961°
argument of perigee: 267.1704°
revolutions per day: 13.88968067
mean anomaly at epoch: 89.5038°
orbit number at epoch: 17471

The dashed part of the orbit path shows where the satellite is in the earth's shadow,  

DLR